Wind_Speed
0 3 4 4 4 5 7 7 5 4 1 3 4 5 6 7 7 6 5 3 1 4 6 8 9 10 11 10 8 6 7 6 7 7 7 7 7 6 5 6 7 6 6 5 3 13 20 22 20
1 1 2 3 4 6 6 8 8 7 5 2 3 3 4 5 6 6 6 3 1 2 4 7 9 10 11 10 8 8 7 6 7 8 8 7 6 5 5 6 6 3 4 4 2 8 15 18 18
2 2 3 3 3 2 4 6 8 8 7 5 3 2 2 4 6 7 7 4 2 3 3 6 9 11 11 10 9 8 7 6 7 9 9 8 6 5 5 5 4 2 1 1 2 5 9 11 12
5 4 4 3 2 1 3 5 7 8 8 8 6 4 2 3 6 8 9 5 2 2 4 6 9 11 11 10 9 8 7 7 8 9 11 10 7 6 6 5 4 3 3 3 2 4 5 7 8
7 6 7 6 4 4 5 6 7 9 9 9 8 7 6 4 5 8 9 6 3 2 3 5 9 11 12 11 9 8 8 8 9 10 11 10 9 7 6 6 5 5 6 6 5 5 6 7 7
8 8 8 7 6 4 4 7 8 9 10 10 9 8 8 6 6 8 9 7 4 1 3 6 8 10 11 11 10 9 8 9 10 10 11 11 10 9 8 8 8 8 8 9 9 8 7 7 8
8 6 4 3 2 1 3 7 10 10 10 12 11 9 7 6 6 8 8 7 4 2 3 5 7 9 11 10 10 9 9 10 11 11 12 11 10 9 9 10 10 10 10 10 11 12 10 9 10
7 4 2 2 1 2 5 9 12 11 10 12 12 12 8 5 4 6 7 6 5 2 2 5 7 8 10 11 10 9 10 11 12 12 13 12 11 10 10 11 11 11 11 11 12 13 14 13 12
7 5 4 4 3 4 6 11 13 11 9 11 12 12 10 6 2 5 7 7 5 1 2 4 6 8 10 12 12 11 11 13 14 14 14 13 12 11 11 12 12 11 10 10 11 12 14 15 15
9 7 6 5 5 6 8 11 14 12 10 10 12 12 10 5 3 5 6 5 4 1 3 4 6 8 11 14 15 14 13 14 15 15 15 14 12 12 12 13 13 11 9 9 9 11 13 14 16
11 9 8 7 7 8 9 11 13 14 12 12 12 12 10 6 5 5 5 5 4 3 4 6 7 9 11 14 16 15 14 15 16 15 16 15 13 12 12 13 13 11 9 10 11 11 12 13 15
14 12 11 10 10 11 12 13 14 16 15 14 13 11 10 8 8 7 7 7 7 6 7 8 9 10 11 13 15 15 15 15 15 15 16 14 12 11 12 13 13 11 10 10 11 11 12 13 15
17 16 15 14 13 14 15 15 16 19 18 17 16 14 12 11 11 11 11 11 11 10 11 11 12 13 13 14 16 16 15 14 15 16 14 13 11 11 12 13 13 12 11 11 11 11 10 11 13
21 20 18 17 17 17 17 17 18 21 20 20 18 17 15 14 13 13 14 14 15 15 14 15 15 15 16 16 18 18 17 16 15 15 13 12 10 10 12 13 13 12 12 11 11 11 9 10 11
24 24 22 21 21 20 20 18 21 22 22 21 19 18 18 17 16 15 16 17 17 18 18 17 18 18 19 19 20 20 19 17 16 15 13 12 10 10 12 14 14 13 12 11 11 11 10 10 10
28 27 26 25 25 23 22 20 23 23 23 21 20 19 20 20 19 17 18 19 20 20 20 19 20 21 22 22 21 21 20 19 17 16 14 13 11 10 11 14 14 14 13 12 12 11 10 11 9
32 31 30 30 28 26 24 22 24 24 22 20 20 20 21 21 20 19 20 21 21 22 22 21 21 22 23 23 22 22 22 21 18 17 16 15 13 11 10 12 14 14 14 13 12 12 11 12 11
35 34 33 32 31 29 26 24 24 24 23 21 20 21 22 22 21 20 20 21 21 22 22 22 23 24 25 24 22 21 22 22 19 18 18 18 17 13 11 12 13 14 14 14 13 13 13 13 13
38 36 34 32 32 30 29 28 26 26 24 22 21 20 22 23 23 22 21 21 21 21 22 23 24 25 26 24 22 21 22 22 21 21 21 20 19 18 16 14 13 14 15 15 15 15 15 15 14
36 35 34 33 32 30 29 29 28 27 25 24 22 21 23 25 26 24 23 22 22 23 24 24 24 25 25 25 24 24 24 25 25 24 23 22 22 21 20 17 15 14 15 16 17 17 16 16 15
33 32 33 33 32 31 29 29 28 27 26 26 25 23 24 26 26 26 25 23 23 24 26 26 25 26 26 27 27 27 27 27 28 28 27 25 25 24 21 20 18 16 17 18 19 20 19 18 18
32 33 33 34 33 33 31 30 28 27 27 28 27 26 25 26 26 26 26 25 25 25 26 26 27 27 28 28 29 29 29 29 30 29 29 29 28 26 24 20 20 21 21 21 22 23 23 22 20
30 30 31 31 32 31 28 28 26 26 27 28 28 27 26 25 25 25 25 26 26 27 28 27 28 29 29 29 29 30 31 31 31 30 30 31 29 28 25 23 23 23 24 25 25 26 26 25 24
28 29 29 29 30 30 26 26 25 23 25 26 27 26 25 23 23 23 23 25 26 28 28 28 28 28 27 28 29 30 30 30 29 29 29 29 28 27 26 25 25 25 26 27 28 28 29 28 28
28 28 28 27 27 28 28 27 27 26 25 24 24 23 22 21 21 22 23 24 26 27 27 27 26 26 27 27 27 26 26 26 26 25 25 24 23 23 24 26 26 26 27 28 29 30 31 31 30
29 28 27 27 27 27 26 26 25 25 24 22 20 20 19 20 20 21 23 25 27 27 27 26 25 25 25 25 24 23 23 22 22 21 19 18 18 19 20 23 24 24 25 26 28 30 32 33 34
29 29 29 28 28 29 28 26 24 22 21 19 18 18 19 20 21 22 24 25 26 26 26 26 25 24 24 24 23 22 21 19 18 16 15 15 15 16 17 18 19 21 22 24 27 32 35 36 36
26 28 28 27 28 29 31 29 24 21 21 20 20 19 20 21 22 22 23 24 24 24 25 25 24 24 24 24 23 22 21 19 17 15 14 14 14 15 16 17 19 20 21 22 24 28 33 36 38
24 25 26 26 27 27 28 27 24 18 17 18 19 20 20 20 21 22 23 23 23 23 24 23 22 23 24 23 23 22 21 20 18 16 15 14 14 14 15 16 17 19 20 20 22 24 29 35 38
24 25 26 27 28 27 27 26 24 19 19 20 22 23 23 22 22 22 22 22 23 23 23 22 22 24 25 24 22 22 22 22 21 20 18 17 16 16 16 16 17 18 19 20 21 22 25 29 33
Wind_Direction
84 37 50 74 63 40 19 11 10 5 329 207 218 234 243 243 241 238 219 189 88 54 44 29 21 16 13 12 11 3 348 326 309 318 329 338 342 343 336 323 317 319 339 8 193 198 196 195 202
201 53 75 95 73 36 13 4 356 352 348 318 270 258 249 231 222 212 205 210 255 354 14 7 3 5 5 3 9 10 357 330 307 306 317 327 333 342 346 336 328 330 357 31 125 190 199 200 206
145 92 86 111 96 49 13 3 352 341 339 335 318 294 257 214 203 201 207 215 261 297 325 339 349 356 357 355 3 12 5 340 313 306 310 319 321 321 331 335 332 317 320 33 112 178 192 196 201
124 88 61 55 114 131 31 16 1 345 335 332 328 314 281 224 206 210 214 221 261 300 313 326 346 357 356 350 352 3 2 349 324 309 309 313 312 307 312 314 306 266 243 232 191 159 166 168 164
121 89 61 51 93 108 58 30 11 357 348 340 333 321 300 259 223 215 217 226 246 287 315 334 350 356 354 348 342 344 348 345 332 316 310 308 305 297 297 301 286 254 234 226 218 199 181 172 163
129 105 82 74 89 86 43 16 1 351 350 350 344 330 309 283 240 219 217 224 223 245 335 343 349 357 356 348 340 332 333 336 335 325 313 305 301 291 286 289 282 260 239 226 222 217 203 188 180
144 128 106 108 112 31 359 352 347 341 346 354 352 345 325 300 250 224 219 217 208 220 331 343 354 3 3 354 343 329 322 328 334 329 320 306 297 286 276 277 278 268 249 234 227 224 218 206 196
172 166 180 222 263 331 343 344 335 330 341 350 354 355 346 322 261 218 205 200 201 215 320 341 359 2 2 357 345 328 314 316 326 330 324 308 295 285 273 273 275 270 256 240 231 229 225 219 211
205 213 231 256 287 322 338 343 333 319 326 344 354 356 346 331 275 200 189 191 200 219 347 344 349 349 353 356 350 331 311 306 311 321 324 311 294 282 272 271 275 271 257 239 230 228 226 225 222
224 235 249 267 284 306 327 339 338 321 312 329 347 352 345 324 262 199 189 193 204 252 341 345 340 344 353 358 354 339 317 306 304 310 318 313 295 279 268 267 271 270 252 231 222 222 224 226 226
231 241 255 272 281 293 313 332 336 327 312 314 330 340 339 311 266 225 210 219 237 273 303 322 328 335 347 355 353 345 328 311 303 303 311 310 297 280 264 260 265 265 247 230 220 218 223 228 228
235 242 252 264 276 288 302 317 324 321 313 303 309 321 320 295 270 253 243 248 261 275 286 298 312 321 334 345 349 344 331 313 300 300 307 306 295 280 263 254 258 258 247 234 226 225 231 235 235
242 249 255 262 273 285 296 308 316 315 312 303 298 300 303 288 271 263 261 265 272 275 280 290 303 312 321 332 340 342 336 317 300 299 304 304 294 277 261 251 251 251 246 235 230 230 234 237 240
248 253 258 265 273 282 291 302 306 308 312 304 296 293 295 290 276 268 267 271 278 281 284 288 298 307 313 322 330 335 334 319 301 295 298 300 295 276 259 248 245 246 246 239 232 231 234 235 238
249 254 258 264 270 276 282 292 297 301 308 302 293 287 289 289 280 273 270 273 280 284 288 292 297 305 309 315 323 328 328 317 297 286 291 294 294 281 259 247 241 240 243 241 235 232 234 231 232
249 254 258 262 266 269 274 283 288 294 298 297 288 280 280 284 281 276 275 277 280 283 287 291 296 301 306 310 316 319 320 314 293 277 281 288 287 282 264 249 243 239 240 242 238 231 231 228 229
250 253 256 260 263 267 270 274 279 283 286 288 282 274 272 277 278 277 279 282 284 285 286 290 293 295 299 303 307 312 313 310 292 276 277 280 277 273 266 251 242 239 239 240 237 227 227 228 230
251 251 253 258 263 264 266 268 271 275 277 277 275 270 267 271 276 278 282 286 288 287 287 290 290 291 294 296 300 305 306 303 292 278 277 280 274 262 255 250 242 237 238 238 236 230 229 231 230
252 253 256 259 262 263 263 265 266 268 270 269 267 265 265 270 277 281 285 288 290 287 287 290 288 290 293 294 295 297 297 294 287 278 277 279 274 263 252 244 241 238 239 240 239 236 233 232 230
257 258 259 258 260 263 264 264 264 262 261 260 260 260 262 268 275 281 284 285 286 284 285 288 288 289 292 294 295 294 292 288 282 276 274 273 270 265 259 248 241 245 247 245 242 240 235 231 229
256 257 256 257 261 265 266 264 262 260 256 254 255 257 260 267 275 281 282 282 283 283 286 291 291 291 292 293 292 291 289 286 280 275 272 270 268 264 264 255 248 255 257 253 245 240 237 232 227
257 257 257 260 260 262 265 264 259 257 255 252 253 255 261 268 274 279 280 281 284 286 290 292 292 293 293 292 289 288 286 282 278 274 272 270 267 263 260 258 256 256 261 259 251 241 238 233 227
257 257 258 260 261 261 261 261 257 251 251 252 252 255 260 266 272 276 278 281 286 289 292 292 292 293 292 290 287 284 282 279 277 274 271 268 264 260 256 256 254 257 259 258 255 244 237 233 228
259 255 253 254 256 256 256 258 257 249 248 251 253 256 259 265 269 274 276 280 285 289 293 295 295 294 291 287 284 281 279 278 277 275 270 266 262 258 256 256 255 257 258 258 254 245 237 234 230
255 255 257 257 258 259 258 258 260 259 255 255 256 257 259 262 265 270 275 282 287 291 293 294 293 292 291 289 286 282 279 278 276 273 269 264 260 257 256 256 257 258 258 257 253 246 239 235 231
252 253 255 257 263 266 266 264 264 264 263 260 257 257 258 261 266 274 281 286 289 292 293 292 293 294 293 292 291 288 282 277 274 270 264 259 257 257 258 257 257 257 256 255 252 247 241 236 233
255 253 252 251 253 257 262 263 262 265 266 265 261 260 263 268 275 281 285 287 290 291 292 293 293 295 296 295 295 292 285 279 274 268 262 259 258 259 259 258 257 255 255 256 252 248 244 238 237
255 256 259 259 257 258 259 262 269 268 265 264 265 264 266 272 277 280 282 284 287 289 291 293 293 295 298 298 295 291 284 278 273 269 266 266 265 263 261 261 259 258 259 257 254 245 242 239 237
254 254 257 262 263 261 265 268 265 265 263 263 262 263 267 271 275 279 282 284 286 288 290 292 295 299 301 299 295 289 281 275 272 270 269 270 270 269 266 263 262 259 256 253 251 245 241 238 236
253 253 254 255 257 258 259 261 264 262 261 259 259 260 262 266 272 277 281 283 286 288 291 293 298 302 302 299 294 288 282 276 273 271 270 271 272 272 270 265 263 260 256 253 250 248 244 239 235
Height
5902 5903 5903 5904 5904 5904 5904 5904 5902 5902 5901 5901 5900 5899 5898 5898 5899 5901 5898 5897 5897 5896 5895 5894 5893 5891 5888 5886 5884 5883 5882 5881 5879 5878 5878 5877 5875 5874 5874 5872 5871 5870 5869 5866 5866 5868 5871 5874 5877
5902 5903 5904 5904 5904 5904 5904 5903 5902 5902 5901 5900 5899 5898 5897 5896 5896 5896 5896 5896 5896 5896 5895 5893 5892 5890 5888 5886 5884 5882 5881 5880 5879 5878 5877 5876 5875 5874 5873 5872 5871 5870 5869 5868 5868 5869 5871 5873 5875
5902 5903 5904 5904 5904 5904 5904 5903 5902 5901 5900 5899 5898 5897 5896 5895 5895 5895 5895 5895 5895 5895 5894 5892 5891 5889 5887 5885 5884 5882 5881 5879 5878 5877 5876 5875 5874 5873 5872 5871 5870 5869 5869 5869 5870 5871 5871 5873 5874
5903 5904 5904 5904 5903 5903 5904 5903 5902 5900 5899 5898 5897 5896 5895 5894 5894 5894 5894 5894 5894 5894 5893 5891 5890 5888 5886 5884 5883 5882 5880 5879 5877 5875 5874 5873 5873 5872 5871 5871 5870 5869 5869 5870 5871 5871 5873 5874 5875
5902 5903 5903 5902 5902 5903 5903 5902 5901 5900 5898 5897 5896 5894 5893 5893 5893 5892 5893 5893 5893 5893 5892 5890 5889 5887 5885 5883 5882 5881 5879 5878 5876 5874 5873 5872 5871 5871 5870 5869 5869 5868 5869 5870 5871 5872 5873 5874 5875
5902 5903 5904 5903 5903 5903 5903 5902 5901 5899 5897 5895 5894 5893 5891 5891 5891 5891 5891 5891 5892 5892 5891 5889 5888 5886 5885 5883 5881 5879 5878 5876 5875 5873 5871 5870 5870 5870 5869 5868 5867 5867 5868 5869 5870 5871 5872 5874 5875
5902 5902 5903 5903 5903 5902 5902 5900 5899 5897 5896 5894 5892 5891 5890 5889 5889 5889 5889 5890 5891 5891 5890 5888 5887 5885 5883 5882 5880 5879 5877 5875 5873 5871 5870 5868 5868 5868 5867 5866 5865 5865 5865 5867 5868 5870 5871 5873 5874
5899 5901 5901 5901 5901 5901 5900 5898 5897 5896 5895 5893 5891 5889 5888 5887 5887 5887 5888 5889 5889 5889 5888 5887 5885 5884 5882 5881 5879 5877 5875 5873 5871 5870 5868 5866 5865 5865 5865 5864 5863 5863 5863 5864 5866 5868 5869 5871 5873
5897 5900 5899 5900 5900 5899 5898 5897 5896 5894 5893 5892 5889 5888 5887 5886 5886 5886 5886 5887 5888 5887 5886 5885 5884 5882 5881 5879 5877 5875 5873 5871 5869 5867 5866 5864 5863 5862 5862 5862 5861 5861 5861 5862 5863 5865 5866 5868 5870
5895 5897 5897 5898 5898 5897 5897 5896 5894 5893 5892 5891 5889 5888 5887 5886 5885 5885 5886 5886 5886 5885 5884 5883 5882 5881 5879 5877 5875 5873 5871 5869 5867 5865 5863 5862 5860 5860 5859 5859 5859 5859 5859 5860 5861 5862 5864 5866 5867
5892 5894 5894 5895 5895 5895 5895 5894 5893 5891 5890 5890 5888 5887 5886 5885 5885 5885 5885 5885 5885 5884 5883 5882 5880 5879 5878 5876 5874 5872 5869 5866 5864 5863 5861 5859 5858 5857 5856 5856 5856 5857 5857 5858 5859 5860 5861 5863 5865
5889 5891 5891 5892 5892 5893 5893 5892 5891 5890 5889 5888 5887 5886 5885 5884 5883 5883 5884 5884 5883 5882 5881 5880 5878 5877 5876 5874 5872 5870 5867 5864 5862 5860 5858 5856 5855 5854 5853 5854 5854 5855 5856 5856 5857 5858 5859 5860 5862
5887 5888 5888 5889 5890 5890 5890 5890 5889 5888 5887 5886 5885 5884 5883 5882 5881 5881 5881 5881 5880 5880 5879 5877 5876 5874 5873 5871 5869 5867 5864 5862 5859 5858 5856 5854 5852 5852 5851 5851 5852 5853 5854 5854 5855 5856 5857 5858 5859
5884 5884 5885 5885 5886 5887 5887 5887 5886 5885 5884 5882 5882 5881 5880 5880 5879 5878 5878 5877 5877 5876 5875 5874 5873 5872 5870 5868 5866 5864 5861 5859 5857 5855 5853 5851 5850 5849 5848 5849 5850 5851 5852 5852 5853 5854 5855 5855 5856
5879 5880 5881 5881 5882 5883 5883 5884 5882 5881 5880 5879 5878 5877 5877 5876 5876 5875 5874 5874 5873 5872 5872 5871 5870 5869 5867 5865 5863 5860 5858 5856 5854 5852 5850 5849 5847 5846 5846 5846 5847 5848 5849 5850 5851 5852 5853 5853 5854
5874 5876 5877 5877 5877 5878 5881 5881 5878 5877 5876 5875 5874 5873 5873 5873 5872 5871 5870 5870 5870 5869 5868 5868 5867 5865 5863 5861 5859 5858 5856 5854 5852 5849 5848 5846 5845 5844 5843 5843 5844 5845 5847 5848 5849 5850 5851 5851 5852
5869 5870 5871 5871 5871 5872 5874 5875 5873 5872 5871 5871 5870 5869 5869 5869 5868 5867 5866 5866 5866 5865 5864 5864 5863 5861 5859 5858 5855 5854 5852 5851 5849 5846 5845 5843 5842 5841 5841 5840 5841 5842 5844 5845 5847 5848 5849 5850 5850
5862 5862 5864 5865 5865 5866 5868 5869 5868 5866 5866 5866 5865 5865 5864 5864 5864 5863 5863 5862 5861 5861 5860 5859 5858 5857 5855 5854 5852 5850 5848 5847 5845 5844 5842 5840 5839 5838 5838 5838 5838 5839 5841 5842 5844 5845 5847 5848 5849
5854 5855 5857 5858 5858 5860 5861 5861 5862 5861 5861 5860 5860 5860 5860 5860 5860 5859 5858 5858 5857 5856 5855 5854 5853 5852 5851 5849 5848 5847 5845 5844 5842 5841 5839 5837 5835 5835 5834 5834 5835 5836 5837 5839 5840 5842 5844 5845 5846
5847 5849 5850 5851 5851 5852 5854 5854 5854 5854 5854 5855 5855 5855 5855 5855 5855 5854 5854 5853 5853 5852 5850 5849 5848 5846 5845 5844 5843 5842 5841 5839 5838 5837 5835 5833 5832 5831 5830 5831 5831 5832 5833 5835 5837 5839 5840 5842 5843
5841 5842 5842 5843 5844 5846 5847 5848 5848 5848 5848 5848 5849 5849 5850 5850 5849 5849 5848 5848 5848 5846 5845 5843 5842 5840 5839 5838 5837 5836 5835 5833 5832 5831 5829 5828 5827 5826 5825 5826 5827 5828 5829 5831 5833 5835 5837 5838 5840
5833 5833 5835 5836 5838 5839 5840 5840 5842 5841 5841 5842 5843 5844 5844 5844 5844 5844 5843 5843 5842 5840 5839 5838 5836 5834 5833 5831 5830 5829 5828 5826 5825 5824 5823 5822 5821 5820 5820 5820 5821 5823 5825 5826 5828 5830 5832 5834 5837
5826 5826 5828 5829 5830 5831 5832 5833 5835 5834 5834 5835 5836 5838 5838 5839 5838 5838 5838 5837 5836 5834 5833 5832 5830 5829 5827 5825 5823 5822 5820 5818 5817 5816 5815 5815 5815 5815 5815 5815 5816 5818 5819 5820 5822 5824 5827 5829 5832
5820 5821 5821 5822 5823 5825 5826 5826 5827 5828 5828 5829 5830 5831 5832 5832 5832 5832 5832 5831 5830 5829 5828 5826 5825 5823 5820 5819 5817 5814 5812 5811 5809 5808 5808 5807 5808 5809 5810 5810 5811 5812 5813 5814 5815 5818 5821 5824 5827
5814 5815 5816 5816 5816 5818 5819 5820 5821 5821 5822 5823 5824 5825 5825 5826 5826 5826 5826 5826 5825 5824 5823 5821 5819 5817 5815 5813 5810 5808 5806 5804 5802 5801 5801 5801 5802 5803 5804 5804 5805 5805 5806 5806 5808 5811 5814 5817 5821
5807 5809 5811 5812 5812 5812 5812 5813 5815 5815 5816 5817 5818 5819 5819 5820 5821 5821 5821 5820 5819 5818 5817 5816 5814 5811 5809 5807 5804 5802 5800 5798 5797 5796 5795 5796 5796 5797 5798 5798 5798 5798 5799 5799 5800 5803 5806 5810 5814
5800 5801 5803 5805 5805 5806 5808 5808 5810 5810 5811 5812 5813 5814 5814 5815 5815 5815 5815 5814 5813 5812 5811 5810 5808 5806 5803 5801 5799 5796 5795 5794 5792 5791 5791 5792 5792 5792 5793 5793 5793 5793 5793 5793 5793 5795 5798 5803 5807
5793 5794 5796 5797 5799 5801 5802 5803 5805 5805 5806 5807 5808 5808 5809 5809 5809 5809 5809 5808 5807 5806 5804 5803 5801 5799 5797 5795 5793 5791 5790 5789 5789 5788 5788 5788 5788 5788 5788 5788 5788 5788 5788 5788 5787 5788 5790 5794 5799
5787 5788 5789 5791 5792 5795 5796 5799 5798 5800 5801 5801 5802 5802 5803 5803 5803 5803 5802 5801 5801 5799 5798 5797 5796 5793 5791 5789 5787 5786 5786 5785 5785 5785 5784 5784 5784 5784 5784 5784 5783 5783 5783 5783 5783 5783 5785 5787 5792
5779 5780 5782 5785 5786 5787 5789 5794 5791 5793 5794 5795 5795 5795 5796 5796 5796 5796 5796 5795 5794 5793 5792 5791 5790 5788 5786 5784 5782 5781 5780 5780 5780 5780 5780 5780 5779 5779 5779 5779 5779 5779 5778 5779 5779 5779 5780 5782 5785